Regional Weather Roundup
Issued by NWS Boston, MA

Home | Current Version | Previous Version | Text Only | Print | Product List | Glossary On
Versions: 1 2 3 4 5 6 7 8 9 10 11 12 13 14 15 16 17 18 19 20 21 22 23 24 25 26 27 28 29 30 31 32 33 34 35 36 37 38 39 40 41 42 43 44 45 46 47 48 49 50
000
ASUS41 KBOX 310510
RWRBOX

REGIONAL WEATHER ROUNDUP
NATIONAL WEATHER SERVICE TAUNTON MA
100 AM EDT MON AUG 31 2015

NOTE:  "FAIR" INDICATES FEW OR NO CLOUDS BELOW 12,000 FEET WITH NO
SIGNIFICANT WEATHER AND/OR OBSTRUCTIONS TO VISIBILITY.  THE FOLLOWING
OBSERVATION LOCATIONS DO NOT REPORT PRESENT WEATHER...PROVINCETOWN...
SMITHFIELD...BLOCK ISLAND...KEENE...AND OXFORD.

MAZALL-310600-
EASTERN MASSACHUSETTS

CITY           SKY/WX    TMP DP  RH WIND       PRES   REMARKS
BOSTON         PTCLDY    76  65  68 SW8       30.00S
BEVERLY        CLOUDY    69  65  86 CALM      29.99S
LAWRENCE       PTCLDY    69  63  81 S3        30.02S
BEDFORD        CLEAR     67  62  84 SW3       29.99S
BLUE HILL        N/A     71  64  78 SW9       30.02S
NORWOOD        CLEAR     66  64  93 CALM      30.00F
MARSHFIELD     MOCLDY    73  70  88 SW3       30.02S
PLYMOUTH       CLOUDY    72  68  87 SW3       30.02S
TAUNTON        PTCLDY    73  68  84 SW3       30.00F
NEW BEDFORD    PTCLDY    71  68  90 SW5       30.01F
$$

MAZALL-310600-
CAPE COD AND THE ISLANDS

CITY           SKY/WX    TMP DP  RH WIND       PRES   REMARKS
FALMOUTH       CLOUDY    73  70  88 W8        30.02F
HYANNIS        CLOUDY    74  69  85 SW9       30.01F
CHATHAM        CLOUDY    73  70  90 SW7       30.03S
PROVINCETOWN   CLOUDY    72  63  73 SW10      30.01S
NANTUCKET      PTCLDY    72  70  93 SW9       30.03F
MARTHAS VNYRD  MOCLDY    73  69  87 SW8       30.03F
$$

MAZALL-310600-
CENTRAL AND WESTERN MASSACHUSETTS

CITY           SKY/WX    TMP DP  RH WIND       PRES   REMARKS
WORCESTER      CLEAR     68  62  81 W7        30.05S
FITCHBURG      CLEAR     68  64  87 CALM      30.02S
ORANGE         MOCLDY    63  63 100 CALM      30.03S FOG
SPRINGFIELD    CLEAR     66  64  93 CALM      30.01S
WESTFIELD      CLEAR     67  65  93 CALM      30.02S
NORTH ADAMS    CLEAR     62  60  93 CALM      30.04S FOG
PITTSFIELD     PTCLDY    61  60  97 CALM      30.05S FOG
$$

RIZALL-310600-
RHODE ISLAND

CITY           SKY/WX    TMP DP  RH WIND       PRES   REMARKS
PROVIDENCE     PTCLDY    73  67  81 SW5       30.02F
NEWPORT        MOCLDY    73  69  87 S3        30.02F
BLOCK ISLAND   MOCLDY    72  70  94 SW9       30.04S
SMITHFIELD     CLEAR     70  66  88 W3        30.02F
WESTERLY       MOCLDY    74  69  85 CALM      30.03F
$$

CTZALL-310600-
CONNECTICUT

CITY           SKY/WX    TMP DP  RH WIND       PRES   REMARKS
BRADLEY INTL   PTCLDY    69  67  93 CALM      30.01S
HARTFORD       PTCLDY    71  68  90 CALM      30.01F
BRIDGEPORT     MOCLDY    77  71  82 SW6       30.02S
DANBURY        CLOUDY    71  66  84 CALM      30.05S
GROTON         MOCLDY    73  71  93 S3        30.01F
NEW HAVEN      MOCLDY    76  71  85 SW5       30.02F
CHESTER        NOT AVBL
MERIDEN        PTCLDY    71  67  87 CALM      30.02S
WILLIMANTIC    CLOUDY    69  67  93 N5        30.02F FOG
OXFORD         FAIR      72  63  73 CALM      30.06S
$$

MEZ002-015-021-024-NHZ003-005-008-011-012-014-VTZ005-008-310600-
NORTHERN NEW ENGLAND

CITY           SKY/WX    TMP DP  RH WIND       PRES   REMARKS
PORTLAND ME    PTCLDY    64  63  96 CALM      29.98F
BANGOR ME      CLEAR     61  59  93 S3        29.97S
CONCORD NH     CLEAR     64  60  87 CALM      30.00F
MANCHESTER NH  PTCLDY    70  63  78 CALM      29.99S
NASHUA NH      PTCLDY    68  65  90 CALM      30.01S
PORTSMOUTH NH  PTCLDY    66  63  90 CALM      29.98S
JAFFREY NH     PTCLDY    65  64  97 CALM      30.05S FOG
KEENE NH         N/A     63  57  82 CALM      30.03S VSB 1/2
BURLINGTON VT  PTCLDY    66  62  87 E3        29.98F
MT. WASHINGTON FOG       48  48 100 W38         N/A  VSB 0
$$

NYZ052-076-310600-
EASTERN NEW YORK

CITY           SKY/WX    TMP DP  RH WIND       PRES   REMARKS
ALBANY         PTCLDY    69  64  84 CALM      30.01F
NEW YORK CITY  CLOUDY    80  67  64 SW9       30.02F
$$

ANZALL-310600-
MARINE OBSERVATIONS

STATION/POSITION TIME  TEMP    WIND        PRES    VSBY  WAVE
                       AIR SEA DIR/SP/G                  HT/PER
                 (UTC) (F)     (DEG/KT/KT) (MB)    (MI)  (FT/S)
BOSTON BUOY      0450   72 71  230/  6/  8 1015.7F         1/10
BUZZARDS BAY     0400          230/ 12/ 13 1017.7F
NANTUCKET SOUND  0450   73 74  240/ 10/ 12 1016.4F         1/ 8
MASS BAY-STELLWA 0404   71 70  240/  4/  4   N/A    1 7/8  1/11
ISLE OF SHOALS   0400   72     240/  8/  8 1015.1F
S OF BLOCK IS    0408      74                N/A           3/11
$$

......................KEY.........................
  SKY/WX - SKY CONDITION/PRESENT WEATHER
  TMP    - TEMPERATURE IN FAHRENHEIT
  DWPT   - DEWPOINT IN FAHRENHEIT
  RH     - RELATIVE HUMIDITY IN PERCENT
  WIND   - DIRECTION AND SPEED IN MPH
  PRES   - MEAN SEA LEVEL PRESSURE IN INCHES OF HG
  WCI    - WIND CHILL INDEX
  VSB    - VISIBILITY IN MILES
  HX     - HEAT INDEX
  TC     - TEMPERATURE IN CELSIUS
  VRB    - VARIABLE WIND DIRECTION
  N/A    - NOT AVAILABLE


USA.gov is the U.S. government's official web portal to all federal, state and local government web resources and services.